Tracking 19575 objects as of 19-Feb-2019
HD Live streaming from Space Station
objects crossing your sky now

INTELSAT 801

Track INTELSAT 801 now!
INTELSAT 801 is classified as:


NORAD ID: 24742
Int'l Code: 1997-009A
Perigee: 36,166.3 km
Apogee: 36,293.9 km
Inclination: 7.9 °
Period: 1,458.4 minutes
Semi major axis: 42601 km
RCS: 1.061 m2 (large)
Launch date: March 1, 1997
Source: International Telecommunications Satellite Organization (ITSO)
Launch site: FRENCH GUIANA (FRGUI)

64 C-band, 16 Ku-band; broadcasting, business services, direct-to-home TV broadcasting, telecommunications, VSAT networks; Atlantic Ocean region.
aabbcc
Your satellite tracking list
Your tracking list is empty




NASA's NSSDC Master Catalog

Two Line Element Set (TLE):
1 24742U 97009A   19049.62202181 -.00000032 +00000-0 +00000-0 0  9995
2 24742 007.8847 049.8222 0014973 295.8289 064.2801 00.98735197080232
Source of the keplerian elements: AFSPC